This is the latest recevied weather packets stored in our database for station/object ZL1CTS-13. If no packets are shown the sender has not sent any weather packets the latest 10 day(s).
| Time | Temp. | Humidity | Pressure | Rain* | Wind** | Luminosity | Snow |
|---|---|---|---|---|---|---|---|
| 1777601404 | 20.56° C | 42% | 1025.9 hPa | 0 mm | - | - | - |
| 1777600804 | 20° C | 44% | 1026 hPa | 0 mm | - | - | - |
| 1777600204 | 20° C | 45% | 1026.1 hPa | 0 mm | - | - | - |
| 1777599604 | 20° C | 44% | 1025.9 hPa | 0 mm | - | - | - |
| 1777599003 | 19.44° C | 45% | 1025.9 hPa | 0 mm | - | - | - |
| 1777598407 | 19.44° C | 44% | 1026 hPa | 0 mm | - | - | - |
| 1777597806 | 19.44° C | 42% | 1026 hPa | 0 mm | - | - | - |
| 1777597205 | 20° C | 44% | 1026.2 hPa | 0 mm | - | - | - |
| 1777596604 | 19.44° C | 46% | 1026.3 hPa | 0 mm | - | - | - |
| 1777596004 | 19.44° C | 44% | 1026.5 hPa | 0 mm | - | - | - |
| 1777595404 | 20° C | 46% | 1026.6 hPa | 0 mm | - | - | - |
| 1777594804 | 19.44° C | 47% | 1026.8 hPa | 0 mm | - | - | - |
| 1777594204 | 19.44° C | 48% | 1026.8 hPa | 0 mm | - | - | - |
| 1777593604 | 19.44° C | 48% | 1026.7 hPa | 0 mm | - | - | - |
| 1777593004 | 19.44° C | 51% | 1027 hPa | 0 mm | - | - | - |
| 1777592403 | 18.89° C | 52% | 1027.1 hPa | 0 mm | - | - | - |
| 1777591804 | 19.44° C | 49% | 1027.1 hPa | 0 mm | - | - | - |
| 1777591204 | 20° C | 44% | 1027.1 hPa | 0 mm | - | - | - |
| 1777590604 | 21.11° C | 43% | 1027.1 hPa | 0 mm | - | - | - |
| 1777590004 | 21.11° C | 45% | 1027.1 hPa | 0 mm | - | - | - |
| 1777589404 | 22.22° C | 46% | 1027.1 hPa | 0 mm | - | - | - |
| 1777588804 | 20.56° C | 50% | 1027.2 hPa | 0 mm | - | - | - |
| 1777588204 | 20.56° C | 50% | 1027.1 hPa | 0 mm | - | - | - |
| 1777587604 | 21.11° C | 50% | 1027.3 hPa | 0 mm | - | - | - |
| 1777587004 | 20.56° C | 52% | 1027.4 hPa | 0 mm | - | - | - |
* Rain latest hour (hover to see other rain measurements)
** Current wind speed in m/s (hover to see current wind gust speed)